Simultaneous Nadir Overpasses (SNOs) Predictions

Prediction of SNOs near equator between AQUA and NPP Satellite Orbit:

Table of predicted SNOs near equator for the next 14.0 days since TLE Epoch: 3/2/2013
Index Date (AQUA) Time (AQUA) AQUA Lat,Lon Date (NPP) Time (NPP) NPP Lat,Lon Distance(km) Time Diff (sec)
1 03/02/2013 09:31:22 -3.63,-119.43 03/02/2013 09:22:05 -3.46,-120.18 85.09 557
2 03/05/2013 01:00:46 11.86,-172.99 03/05/2013 00:50:46 11.93,-173.67 74.73 600
3 03/05/2013 01:47:25 -2.00, -3.21 03/05/2013 01:38:35 -1.84, -4.06 95.76 530
4 03/07/2013 17:15:22 4.92, -55.61 03/07/2013 17:05:43 4.79, -56.29 76.18 579
5 03/10/2013 09:31:26 3.33, 60.61 03/10/2013 09:22:14 3.18, 59.84 87.13 552
6 03/13/2013 00:59:13 -6.21, 8.25 03/13/2013 00:49:13 -6.12, 7.64 67.87 600
7 03/13/2013 01:47:29 1.69, 176.84 03/13/2013 01:38:44 1.52, 175.97 98.09 525
8 03/15/2013 17:15:15 -4.60, 124.48 03/15/2013 17:05:42 -4.46, 123.78 78.92 573




NCC Satellite Simultaneous Nadir Overpasses (SNOs) Prediction Service
